Time,TemperatureF,DewpointF,PressureIn,WindDirection,WindDirectionDegrees,WindSpeedMPH,WindSpeedGustMPH,Humidity,HourlyPrecipIn,Conditions,Clouds,dailyrainin,SolarRadiationWatts/m^2,SoftwareType,DateUTC
2014-10-20 00:02:00,27.0,24.0,-100.00,SE,139,2.0,5.0,87,0.00,,,0.00,1.000000,,2014-10-20 08:02:00,
2014-10-20 00:12:00,27.0,24.0,-100.00,SE,139,2.0,5.0,87,0.00,,,0.00,1.000000,,2014-10-20 08:12:00,
2014-10-20 00:22:00,27.0,24.0,-100.00,SE,139,2.0,5.0,87,0.00,,,0.00,1.000000,,2014-10-20 08:22:00,
2014-10-20 00:52:00,27.0,24.0,-100.00,SE,128,2.0,5.0,88,0.00,,,0.00,1.000000,,2014-10-20 08:52:00,
2014-10-20 01:02:00,27.0,24.0,-100.00,SE,128,2.0,5.0,88,0.00,,,0.00,1.000000,,2014-10-20 09:02:00,
2014-10-20 01:11:00,27.0,24.0,-100.00,SE,128,2.0,5.0,88,0.00,,,0.00,1.000000,,2014-10-20 09:11:00,
2014-10-20 01:22:00,27.0,24.0,-100.00,SE,128,2.0,5.0,88,0.00,,,0.00,1.000000,,2014-10-20 09:22:00,
2014-10-20 01:54:00,26.0,23.0,-100.00,ESE,109,1.0,2.0,88,0.00,,,0.00,1.000000,,2014-10-20 09:54:00,
2014-10-20 02:04:00,26.0,23.0,-100.00,ESE,109,1.0,2.0,88,0.00,,,0.00,1.000000,,2014-10-20 10:04:00,
2014-10-20 02:13:00,26.0,23.0,-100.00,ESE,109,1.0,2.0,88,0.00,,,0.00,1.000000,,2014-10-20 10:13:00,
2014-10-20 02:23:00,26.0,23.0,-100.00,ESE,109,1.0,2.0,88,0.00,,,0.00,1.000000,,2014-10-20 10:23:00,
2014-10-20 02:53:00,29.0,25.0,-100.00,NE,55,3.0,7.0,84,0.00,,,0.00,1.000000,,2014-10-20 10:53:00,
2014-10-20 03:03:00,29.0,25.0,-100.00,NE,55,3.0,7.0,84,0.00,,,0.00,1.000000,,2014-10-20 11:03:00,
2014-10-20 03:13:00,29.0,25.0,-100.00,NE,55,3.0,7.0,84,0.00,,,0.00,1.000000,,2014-10-20 11:13:00,
2014-10-20 03:22:00,29.0,25.0,-100.00,NE,55,3.0,7.0,84,0.00,,,0.00,1.000000,,2014-10-20 11:22:00,
2014-10-20 03:52:00,29.0,25.0,-100.00,NE,44,3.0,6.0,84,0.00,,,0.00,1.000000,,2014-10-20 11:52:00,
2014-10-20 04:02:00,29.0,25.0,-100.00,NE,44,3.0,6.0,84,0.00,,,0.00,1.000000,,2014-10-20 12:02:00,
2014-10-20 04:12:00,29.0,25.0,-100.00,NE,44,3.0,6.0,84,0.00,,,0.00,1.000000,,2014-10-20 12:12:00,
2014-10-20 04:22:00,29.0,25.0,-100.00,NE,44,3.0,6.0,84,0.00,,,0.00,1.000000,,2014-10-20 12:22:00,
2014-10-20 04:52:00,29.0,24.0,-100.00,South,184,2.0,5.0,80,0.00,,,0.00,1.000000,,2014-10-20 12:52:00,
2014-10-20 05:02:00,29.0,24.0,-100.00,South,184,2.0,5.0,80,0.00,,,0.00,1.000000,,2014-10-20 13:02:00,
2014-10-20 05:12:00,29.0,24.0,-100.00,South,184,2.0,5.0,80,0.00,,,0.00,1.000000,,2014-10-20 13:12:00,
2014-10-20 05:22:00,29.0,24.0,-100.00,South,184,2.0,5.0,80,0.00,,,0.00,1.000000,,2014-10-20 13:22:00,
2014-10-20 05:53:00,29.0,23.0,-100.00,South,189,1.0,3.0,79,0.00,,,0.00,1.000000,,2014-10-20 13:53:00,
2014-10-20 06:02:00,29.0,23.0,-100.00,South,189,1.0,3.0,79,0.00,,,0.00,1.000000,,2014-10-20 14:02:00,
2014-10-20 06:12:00,29.0,23.0,-100.00,South,189,1.0,3.0,79,0.00,,,0.00,1.000000,,2014-10-20 14:12:00,
2014-10-20 06:22:00,29.0,23.0,-100.00,South,189,1.0,3.0,79,0.00,,,0.00,1.000000,,2014-10-20 14:22:00,
2014-10-20 06:52:00,30.0,24.0,-100.00,NNE,23,2.0,5.0,77,0.00,,,0.00,1.000000,,2014-10-20 14:52:00,
2014-10-20 07:02:00,30.0,24.0,-100.00,NNE,23,2.0,5.0,77,0.00,,,0.00,1.000000,,2014-10-20 15:02:00,
2014-10-20 07:12:00,30.0,24.0,-100.00,NNE,23,2.0,5.0,77,0.00,,,0.00,1.000000,,2014-10-20 15:12:00,
2014-10-20 07:22:00,30.0,24.0,-100.00,NNE,23,2.0,5.0,77,0.00,,,0.00,1.000000,,2014-10-20 15:22:00,
2014-10-20 07:54:00,32.0,23.0,-100.00,East,91,1.0,7.0,69,0.00,,,0.00,1.000000,,2014-10-20 15:54:00,
2014-10-20 08:03:00,32.0,23.0,-100.00,East,91,1.0,7.0,69,0.00,,,0.00,1.000000,,2014-10-20 16:03:00,
2014-10-20 08:13:00,32.0,23.0,-100.00,East,91,1.0,7.0,69,0.00,,,0.00,1.000000,,2014-10-20 16:13:00,
2014-10-20 08:23:00,32.0,23.0,-100.00,East,91,1.0,7.0,69,0.00,,,0.00,1.000000,,2014-10-20 16:23:00,
2014-10-20 08:53:00,32.0,23.0,-100.00,North,357,3.0,5.0,69,0.00,,,0.00,1.000000,,2014-10-20 16:53:00,
2014-10-20 09:03:00,32.0,23.0,-100.00,North,357,3.0,5.0,69,0.00,,,0.00,1.000000,,2014-10-20 17:03:00,
2014-10-20 09:12:00,32.0,23.0,-100.00,North,357,3.0,5.0,69,0.00,,,0.00,1.000000,,2014-10-20 17:12:00,
2014-10-20 09:22:00,32.0,23.0,-100.00,North,357,3.0,5.0,69,0.00,,,0.00,1.000000,,2014-10-20 17:22:00,
2014-10-20 09:53:00,31.0,24.0,-100.00,SE,142,2.0,9.0,74,0.00,,,0.00,4.000000,,2014-10-20 17:53:00,
2014-10-20 10:03:00,31.0,24.0,-100.00,SE,142,2.0,9.0,74,0.00,,,0.00,4.000000,,2014-10-20 18:03:00,
2014-10-20 10:12:00,31.0,24.0,-100.00,SE,142,2.0,9.0,74,0.00,,,0.00,4.000000,,2014-10-20 18:12:00,
2014-10-20 10:22:00,31.0,24.0,-100.00,SE,142,2.0,9.0,74,0.00,,,0.00,4.000000,,2014-10-20 18:22:00,
2014-10-20 10:52:00,34.0,24.0,-100.00,NNE,22,6.0,13.0,66,0.00,,,0.00,41.000000,,2014-10-20 18:52:00,
2014-10-20 11:02:00,34.0,24.0,-100.00,NNE,22,6.0,13.0,66,0.00,,,0.00,41.000000,,2014-10-20 19:02:00,
2014-10-20 11:12:00,34.0,24.0,-100.00,NNE,22,6.0,13.0,66,0.00,,,0.00,41.000000,,2014-10-20 19:12:00,
2014-10-20 11:22:00,34.0,24.0,-100.00,NNE,22,6.0,13.0,66,0.00,,,0.00,41.000000,,2014-10-20 19:22:00,
2014-10-20 11:53:00,35.0,23.0,-100.00,NNE,17,5.0,14.0,62,0.00,,,0.00,81.000000,,2014-10-20 19:53:00,
2014-10-20 12:02:00,35.0,23.0,-100.00,NNE,17,5.0,14.0,62,0.00,,,0.00,81.000000,,2014-10-20 20:02:00,
2014-10-20 12:12:00,35.0,23.0,-100.00,NNE,17,5.0,14.0,62,0.00,,,0.00,81.000000,,2014-10-20 20:12:00,
2014-10-20 12:22:00,35.0,23.0,-100.00,NNE,17,5.0,14.0,62,0.00,,,0.00,81.000000,,2014-10-20 20:22:00,
2014-10-20 12:52:00,36.0,24.0,-100.00,North,356,4.0,9.0,62,0.00,,,0.00,62.000000,,2014-10-20 20:52:00,
2014-10-20 13:02:00,36.0,24.0,-100.00,North,356,4.0,9.0,62,0.00,,,0.00,62.000000,,2014-10-20 21:02:00,
2014-10-20 13:12:00,36.0,24.0,-100.00,North,356,4.0,9.0,62,0.00,,,0.00,62.000000,,2014-10-20 21:12:00,
2014-10-20 13:22:00,36.0,24.0,-100.00,North,356,4.0,9.0,62,0.00,,,0.00,62.000000,,2014-10-20 21:22:00,
2014-10-20 13:54:00,37.0,24.0,-100.00,North,2,4.0,13.0,59,0.01,,,0.01,74.000000,,2014-10-20 21:54:00,
2014-10-20 14:03:00,37.0,24.0,-100.00,North,2,4.0,13.0,59,0.01,,,0.01,74.000000,,2014-10-20 22:03:00,
2014-10-20 14:13:00,37.0,24.0,-100.00,North,2,4.0,13.0,59,0.01,,,0.01,74.000000,,2014-10-20 22:13:00,
2014-10-20 14:22:00,37.0,24.0,-100.00,North,2,4.0,13.0,59,0.01,,,0.01,74.000000,,2014-10-20 22:22:00,
2014-10-20 14:53:00,38.0,25.0,-100.00,North,1,8.0,16.0,58,0.01,,,0.02,91.000000,,2014-10-20 22:53:00,
2014-10-20 15:03:00,38.0,25.0,-100.00,North,1,8.0,16.0,58,0.01,,,0.02,91.000000,,2014-10-20 23:03:00,
2014-10-20 15:12:00,38.0,25.0,-100.00,North,1,8.0,16.0,58,0.01,,,0.02,91.000000,,2014-10-20 23:12:00,